Skip Page Navigation
NASA JPL Caltech
NASA Logo - Jet Propulsion Laboratory + View the NASA Portal
+ Near-Earth Object (NEO) Program
Search JPL
JPL Home Earth Solar System Stars & Galaxies Technology
JPL Solar System Dynamics
BODIES ORBITS EPHEMERIDES TOOLS PHYSICAL DATA DISCOVERY FAQ SITE MAP
JPL Small-Body Database Browser
Search: [ help ]  
194006 (2001 SG10)
Classification: Apollo [NEO, PHA]          SPK-ID: 2194006
Ephemeris | Orbit Diagram | Orbital Elements | Physical Parameters | Discovery Circumstances | Close-Approach Data ]

[ hide orbit diagram ]
Orbit Diagram
Note: Make sure you have Java enabled on your browser to see the applet. This applet is provided as a 3D orbit visualization tool. The applet was implemented using 2-body methods, and hence should not be used for determining accurate long-term trajectories (over several years or decades) or planetary encounter circumstances. For accurate long-term ephemerides, please instead use our Horizons system.
Orbit Viewer

Additional Notes: the orbits shown in the applet are color coded. The planets are white lines, and the asteroid/comet is a blue line. The bright white line indicates the portion of the orbit that is above the ecliptic plane, and the darker portion is below the ecliptic plane. Likewise for the asteroid/comet orbit, the light blue indicates the portion above the ecliptic plane, and the dark blue the portion below the ecliptic plane.

Orbit Viewer applet originally written and kindly provided by Osamu Ajiki (AstroArts), and further modified by Ron Baalke (JPL).


Orbital Elements at Epoch 2456400.5 (2013-Apr-18.0) TDB
Reference: JPL 29 (heliocentric ecliptic J2000)
 Element Value Uncertainty (1-sigma)   Units 
e .4245473871559274 1.552e-07  
a 1.448522213776259 5.9426e-09 AU
q .8335558926802282 2.2578e-07 AU
i 4.255522509635878 1.2479e-05 deg
node 185.0476791324195 2.4972e-05 deg
peri 101.5203158301315 4.8297e-05 deg
M 260.6339134497713 3.3024e-05 deg
tp 2456576.260731532848
(2013-Oct-10.76073153)
5.9391e-05 JED
period 636.7752373928979
1.74
3.9186e-06
1.073e-08
d
yr
n .5653486173142058 3.479e-09 deg/d
Q 2.063488534872289 8.4655e-09 AU
  Orbit Determination Parameters
   # obs. used (total)      250  
   data-arc span      2809 days (7.69 yr)  
   first obs. used      2001-02-20  
   last obs. used      2008-10-30  
   planetary ephem.      DE405  
   SB-pert. ephem.      SB405-CPV-2  
   condition code      0  
   fit RMS      .50938  
   data source      ORB  
   producer      Otto Matic  
   solution date      2013-Apr-29 15:40:27  

Additional Information
 Earth MOID = .0172707 AU 
 T_jup = 4.545 
[ show covariance matrix ]

Ephemeris | Orbit Diagram | Orbital Elements | Physical Parameters | Discovery Circumstances | Close-Approach Data ]

Physical Parameter Table
Parameter Symbol Value Units Sigma Reference Notes
absolute magnitude H 20.173 mag .75316 29 autocmod 2.5c
SMASSII spectral type spec_B X   n/a Binzel et al. (2004) Meteorit. Planet. Sci. 39, 351-366  

194006 (2001 SG10)          Discovered 2001-Sep-19 by LONEOS at Anderson Mesa (699)
Reference: 20081113/Numbers.arcLast Updated: 2008-11-17

[ show close-approach data ]
Ephemeris | Orbit Diagram | Orbital Elements | Physical Parameters | Discovery Circumstances | Close-Approach Data ]
ABOUT SSD CREDITS/AWARDS PRIVACY/COPYRIGHT GLOSSARY LINKS
FirstGov 2013-May-23 19:55 UT
(server date/time)  
NASA Home Page
Site Manager:   Donald K. Yeomans
Webmaster  Alan B. Chamberlin